Weather History for West Palm Beach, FL

Change the Weather History Date:

Thursday, December 19, 2013

  Actual Average Record
Temperature  
Mean Temperature 67 °F 68 °F  
Max Temperature 78 °F 76 °F 88 °F (1989)
Min Temperature 56 °F 59 °F 39 °F (1981)
Degree Days  
Heating Degree Days 0 2  
Month to date heating degree days 0 28  
Since 1 July heating degree days 4 40  
Cooling Degree Days 2 5  
Month to date cooling degree days 156 104  
Year to date cooling degree days 4357 3970  
Growing Degree Days 16 (Base 50)    
Moisture  
Dew Point 56 °F    
Average Humidity 67    
Maximum Humidity 86    
Minimum Humidity 47    
Precipitation  
Precipitation 0.00 in 0.12 in 1.50 in (1947)
Month to date precipitation 4.18 2.04  
Year to date precipitation 64.82 60.99  
Snow  
Snow 0.00 in - - ()
Month to date snowfall 0.0  
Since 1 July snowfall 0.0  
Snow Depth 0.00 in    
Sea Level Pressure  
Sea Level Pressure 30.20 in    
Wind  
Wind Speed 9 mph (ENE)    
Max Wind Speed 17 mph    
Max Gust Speed 21 mph    
Visibility 10 miles    
Events      
T = Trace of Precipitation, MM = Missing Value Source: NWS Daily Summary

Daily Weather History Graph

Daily Weather History Graph

Search for Another Location

Airport:

Trip Planner

Search our weather history database for the weather conditions in past years. The results will help you decide how hot, cold, wet, or windy it might be!

Date:

Astronomy

Dec. 19, 2013 Rise Set
Actual Time 7:03 AM EST 5:31 PM EST
Civil Twilight 6:38 AM EST 5:57 PM EST
Nautical Twilight 6:09 AM EST 6:26 PM EST
Astronomical Twilight 5:40 AM EST 6:54 PM EST
Moon 7:44 PM EST (12/19) 8:31 AM EST (12/19)
Length of Visible Light 11h 18m
Length of Day
10h 27m
Waning Gibbous, 95% of the Moon is Illuminated
Dec 19
Waning Gibbous
Dec 25
Last Quarter
Jan 1
New
Jan 7
First Quarter
Jan 15
Full

Hourly Weather History & Observations

Time (EST) Temp. Dew Point Humidity Pressure Visibility Wind Dir Wind Speed Gust Speed Precip Events Conditions
12:53 AM 59.0 °F 54.0 °F 83% 30.22 in 10.0 mi NW 5.8 mph - N/A   Scattered Clouds
1:53 AM 60.1 °F 55.0 °F 83% 30.21 in 10.0 mi NW 4.6 mph - N/A   Scattered Clouds
2:53 AM 59.0 °F 54.0 °F 83% 30.20 in 10.0 mi NW 5.8 mph - N/A   Scattered Clouds
3:53 AM 57.9 °F 54.0 °F 87% 30.20 in 10.0 mi WNW 3.5 mph - N/A   Partly Cloudy
4:53 AM 57.9 °F 54.0 °F 87% 30.20 in 10.0 mi NW 3.5 mph - N/A   Partly Cloudy
5:53 AM 57.0 °F 53.1 °F 87% 30.20 in 10.0 mi NW 3.5 mph - N/A   Partly Cloudy
6:53 AM 57.0 °F 53.1 °F 87% 30.21 in 10.0 mi Calm Calm - N/A   Partly Cloudy
7:53 AM 59.0 °F 54.0 °F 83% 30.22 in 10.0 mi Calm Calm - N/A   Partly Cloudy
8:53 AM 73.0 °F 55.9 °F 55% 30.23 in 10.0 mi East 9.2 mph - N/A   Partly Cloudy
9:53 AM 75.0 °F 55.9 °F 51% 30.25 in 10.0 mi East 13.8 mph - N/A   Scattered Clouds
10:53 AM 75.9 °F 55.9 °F 50% 30.25 in 10.0 mi East 12.7 mph - N/A   Mostly Cloudy
11:53 AM 77.0 °F 55.9 °F 48% 30.22 in 10.0 mi ESE 11.5 mph 20.7 mph N/A   Scattered Clouds
12:53 PM 75.9 °F 57.0 °F 52% 30.19 in 10.0 mi East 10.4 mph - N/A   Mostly Cloudy
1:53 PM 77.0 °F 57.0 °F 50% 30.18 in 10.0 mi East 13.8 mph - N/A   Scattered Clouds
2:53 PM 77.0 °F 55.9 °F 48% 30.18 in 10.0 mi East 11.5 mph - N/A   Scattered Clouds
3:53 PM 75.9 °F 57.0 °F 52% 30.17 in 10.0 mi East 11.5 mph - N/A   Scattered Clouds
4:53 PM 75.0 °F 57.9 °F 55% 30.17 in 10.0 mi East 9.2 mph - N/A   Scattered Clouds
5:53 PM 73.9 °F 57.9 °F 57% 30.17 in 10.0 mi East 8.1 mph - N/A   Scattered Clouds
6:53 PM 73.9 °F 57.9 °F 57% 30.18 in 10.0 mi East 6.9 mph - N/A   Partly Cloudy
7:53 PM 73.9 °F 57.9 °F 57% 30.18 in 10.0 mi East 11.5 mph - N/A   Partly Cloudy
8:53 PM 73.0 °F 59.0 °F 61% 30.19 in 10.0 mi East 11.5 mph - N/A   Partly Cloudy
9:53 PM 73.0 °F 60.1 °F 64% 30.19 in 10.0 mi East 12.7 mph - N/A   Partly Cloudy
10:53 PM 73.9 °F 60.1 °F 62% 30.19 in 10.0 mi East 16.1 mph 20.7 mph N/A   Partly Cloudy
11:53 PM 73.0 °F 62.1 °F 68% 30.18 in 10.0 mi East 11.5 mph - N/A   Partly Cloudy